Time,TemperatureF,DewpointF,PressureIn,WindDirection,WindDirectionDegrees,WindSpeedMPH,WindSpeedGustMPH,Humidity,HourlyPrecipIn,Conditions,Clouds,dailyrainin,SoftwareType,DateUTC
2013-01-21 00:00:00,35.7,20.7,30.02,NW,318,2.0,13.0,54,0.00,,,0.00,Wunderground v.1.15,2013-01-21 05:00:00,
2013-01-21 00:05:00,35.7,20.7,30.02,NNW,338,3.0,13.0,54,0.00,,,0.00,Wunderground v.1.15,2013-01-21 05:05:00,
2013-01-21 00:10:00,35.7,20.7,30.02,WNW,295,3.0,13.0,54,0.00,,,0.00,Wunderground v.1.15,2013-01-21 05:10:00,
2013-01-21 00:15:00,35.7,20.7,30.03,North,5,3.0,13.0,54,0.00,,,0.00,Wunderground v.1.15,2013-01-21 05:15:00,
2013-01-21 00:25:00,35.5,20.0,30.03,NNW,342,2.0,13.0,53,0.00,,,0.00,Wunderground v.1.15,2013-01-21 05:25:00,
2013-01-21 00:30:00,35.4,19.9,30.03,NNW,334,2.0,13.0,53,0.00,,,0.00,Wunderground v.1.15,2013-01-21 05:30:00,
2013-01-21 00:40:00,35.3,19.9,30.03,NNW,333,2.0,2.0,53,0.00,,,0.00,Wunderground v.1.15,2013-01-21 05:40:00,
2013-01-21 00:45:00,35.2,19.8,30.03,North,355,3.0,3.0,53,0.00,,,0.00,Wunderground v.1.15,2013-01-21 05:45:00,
2013-01-21 00:55:00,35.0,19.6,30.03,NE,46,3.0,3.0,53,0.00,,,0.00,Wunderground v.1.15,2013-01-21 05:55:00,
2013-01-21 01:00:00,34.8,19.8,30.03,North,9,2.0,13.0,54,0.00,,,0.00,Wunderground v.1.15,2013-01-21 06:00:00,
2013-01-21 01:05:00,34.7,19.7,30.03,NW,317,2.0,13.0,54,0.00,,,0.00,Wunderground v.1.15,2013-01-21 06:05:00,
2013-01-21 01:15:00,34.4,19.9,30.04,North,360,2.0,13.0,55,0.00,,,0.00,Wunderground v.1.15,2013-01-21 06:15:00,
2013-01-21 01:20:00,34.4,19.9,30.04,NNW,342,2.0,2.0,55,0.00,,,0.00,Wunderground v.1.15,2013-01-21 06:20:00,
2013-01-21 01:25:00,34.4,19.9,30.04,NW,319,2.0,13.0,55,0.00,,,0.00,Wunderground v.1.15,2013-01-21 06:25:00,
2013-01-21 01:35:00,34.1,20.0,30.04,NW,317,1.0,13.0,56,0.00,,,0.00,Wunderground v.1.15,2013-01-21 06:35:00,
2013-01-21 01:40:00,33.9,19.8,30.05,NW,321,2.0,2.0,56,0.00,,,0.00,Wunderground v.1.15,2013-01-21 06:40:00,
2013-01-21 01:45:00,33.8,19.7,30.05,NW,304,2.0,13.0,56,0.00,,,0.00,Wunderground v.1.15,2013-01-21 06:45:00,
2013-01-21 01:50:00,33.5,19.9,30.05,WNW,289,1.0,13.0,57,0.00,,,0.00,Wunderground v.1.15,2013-01-21 06:50:00,
2013-01-21 01:55:00,33.3,19.7,30.06,West,281,2.0,13.0,57,0.00,,,0.00,Wunderground v.1.15,2013-01-21 06:55:00,
2013-01-21 02:05:00,32.9,19.3,30.06,NNW,327,1.0,13.0,57,0.00,,,0.00,Wunderground v.1.15,2013-01-21 07:05:00,
2013-01-21 02:10:00,32.8,19.2,30.06,NW,319,1.0,1.0,57,0.00,,,0.00,Wunderground v.1.15,2013-01-21 07:10:00,
2013-01-21 02:15:00,32.6,19.0,30.06,NW,323,1.0,13.0,57,0.00,,,0.00,Wunderground v.1.15,2013-01-21 07:15:00,
2013-01-21 02:20:00,32.4,19.3,30.06,WNW,298,1.0,1.0,58,0.00,,,0.00,Wunderground v.1.15,2013-01-21 07:20:00,
2013-01-21 02:30:00,32.1,19.4,30.05,NW,306,1.0,1.0,59,0.00,,,0.00,Wunderground v.1.15,2013-01-21 07:30:00,
2013-01-21 02:35:00,31.9,19.2,30.05,WNW,303,2.0,3.0,59,0.00,,,0.00,Wunderground v.1.15,2013-01-21 07:35:00,
2013-01-21 02:45:00,31.7,19.0,30.05,NNW,340,1.0,13.0,59,0.00,,,0.00,Wunderground v.1.15,2013-01-21 07:45:00,
2013-01-21 02:50:00,31.6,18.9,30.05,WNW,296,1.0,13.0,59,0.00,,,0.00,Wunderground v.1.15,2013-01-21 07:50:00,
2013-01-21 02:55:00,31.5,18.4,30.05,North,349,1.0,13.0,58,0.00,,,0.00,Wunderground v.1.15,2013-01-21 07:55:00,
2013-01-21 03:00:00,31.4,18.3,30.05,North,9,2.0,2.0,58,0.00,,,0.00,Wunderground v.1.15,2013-01-21 08:00:00,
2013-01-21 03:05:00,31.4,18.3,30.05,West,277,2.0,3.0,58,0.00,,,0.00,Wunderground v.1.15,2013-01-21 08:05:00,
2013-01-21 03:15:00,31.2,18.1,30.05,NNE,14,1.0,13.0,58,0.00,,,0.00,Wunderground v.1.15,2013-01-21 08:15:00,
2013-01-21 03:20:00,31.1,18.0,30.04,WNW,303,2.0,13.0,58,0.00,,,0.00,Wunderground v.1.15,2013-01-21 08:20:00,
2013-01-21 03:25:00,30.9,17.8,30.04,North,11,1.0,13.0,58,0.00,,,0.00,Wunderground v.1.15,2013-01-21 08:25:00,
2013-01-21 03:30:00,30.8,17.7,30.04,NNE,21,1.0,1.0,58,0.00,,,0.00,Wunderground v.1.15,2013-01-21 08:30:00,
2013-01-21 03:40:00,30.6,17.6,30.05,North,360,2.0,13.0,58,0.00,,,0.00,Wunderground v.1.15,2013-01-21 08:40:00,
2013-01-21 03:45:00,30.5,17.5,30.05,NNE,14,2.0,13.0,58,0.00,,,0.00,Wunderground v.1.15,2013-01-21 08:45:00,
2013-01-21 03:50:00,30.5,17.5,30.05,NNE,19,2.0,2.0,58,0.00,,,0.00,Wunderground v.1.15,2013-01-21 08:50:00,
2013-01-21 03:55:00,30.3,16.9,30.05,NNW,348,2.0,13.0,57,0.00,,,0.00,Wunderground v.1.15,2013-01-21 08:55:00,
2013-01-21 04:00:00,30.3,16.9,30.05,WNW,300,1.0,13.0,57,0.00,,,0.00,Wunderground v.1.15,2013-01-21 09:00:00,
2013-01-21 04:10:00,30.0,16.6,30.05,NNW,336,0.0,13.0,57,0.00,,,0.00,Wunderground v.1.15,2013-01-21 09:10:00,
2013-01-21 04:15:00,29.9,16.5,30.05,NNW,328,1.0,13.0,57,0.00,,,0.00,Wunderground v.1.15,2013-01-21 09:15:00,
2013-01-21 04:20:00,29.8,16.4,30.06,NW,324,1.0,1.0,57,0.00,,,0.00,Wunderground v.1.15,2013-01-21 09:20:00,
2013-01-21 04:25:00,29.8,16.4,30.06,NW,324,0.0,13.0,57,0.00,,,0.00,Wunderground v.1.15,2013-01-21 09:25:00,
2013-01-21 04:35:00,29.5,16.1,30.06,WNW,296,0.0,13.0,57,0.00,,,0.00,Wunderground v.1.15,2013-01-21 09:35:00,
2013-01-21 04:40:00,29.3,15.9,30.06,NNW,327,0.0,13.0,57,0.00,,,0.00,Wunderground v.1.15,2013-01-21 09:40:00,
2013-01-21 04:45:00,29.2,16.2,30.06,NNW,327,0.0,13.0,58,0.00,,,0.00,Wunderground v.1.15,2013-01-21 09:45:00,
2013-01-21 04:50:00,29.0,15.7,30.06,NNW,333,0.0,13.0,57,0.00,,,0.00,Wunderground v.1.15,2013-01-21 09:50:00,
2013-01-21 04:55:00,28.8,15.9,30.06,NNW,333,0.0,13.0,58,0.00,,,0.00,Wunderground v.1.15,2013-01-21 09:55:00,
2013-01-21 05:05:00,28.5,16.0,30.05,NNW,333,0.0,13.0,59,0.00,,,0.00,Wunderground v.1.15,2013-01-21 10:05:00,
2013-01-21 05:10:00,28.2,15.7,30.05,NNW,333,0.0,13.0,59,0.00,,,0.00,Wunderground v.1.15,2013-01-21 10:10:00,
2013-01-21 05:15:00,27.9,15.8,30.06,NNW,333,0.0,13.0,60,0.00,,,0.00,Wunderground v.1.15,2013-01-21 10:15:00,
2013-01-21 05:20:00,27.6,15.5,30.06,NNW,333,0.0,13.0,60,0.00,,,0.00,Wunderground v.1.15,2013-01-21 10:20:00,
2013-01-21 05:30:00,27.0,15.7,30.06,NNW,333,0.0,13.0,62,0.00,,,0.00,Wunderground v.1.15,2013-01-21 10:30:00,
2013-01-21 05:35:00,26.7,16.1,30.06,NNW,333,0.0,13.0,64,0.00,,,0.00,Wunderground v.1.15,2013-01-21 10:35:00,
2013-01-21 05:40:00,26.5,16.3,30.06,NNW,333,0.0,13.0,65,0.00,,,0.00,Wunderground v.1.15,2013-01-21 10:40:00,
2013-01-21 05:45:00,26.3,15.8,30.06,NNW,333,0.0,13.0,64,0.00,,,0.00,Wunderground v.1.15,2013-01-21 10:45:00,
2013-01-21 05:50:00,26.2,16.0,30.06,NNW,333,0.0,13.0,65,0.00,,,0.00,Wunderground v.1.15,2013-01-21 10:50:00,
2013-01-21 06:00:00,26.0,16.2,30.07,NNW,333,0.0,13.0,66,0.00,,,0.00,Wunderground v.1.15,2013-01-21 11:00:00,
2013-01-21 06:05:00,26.1,16.6,30.07,NNW,333,0.0,13.0,67,0.00,,,0.00,Wunderground v.1.15,2013-01-21 11:05:00,
2013-01-21 06:10:00,25.9,16.1,30.07,NNW,333,0.0,13.0,66,0.00,,,0.00,Wunderground v.1.15,2013-01-21 11:10:00,
2013-01-21 06:15:00,25.8,16.3,30.07,NNW,333,0.0,13.0,67,0.00,,,0.00,Wunderground v.1.15,2013-01-21 11:15:00,
2013-01-21 06:20:00,25.6,16.5,30.08,NNW,333,0.0,13.0,68,0.00,,,0.00,Wunderground v.1.15,2013-01-21 11:20:00,
2013-01-21 06:30:00,25.2,16.5,30.07,NNW,333,0.0,13.0,69,0.00,,,0.00,Wunderground v.1.15,2013-01-21 11:30:00,
2013-01-21 06:35:00,24.9,16.5,30.07,NNW,333,0.0,13.0,70,0.00,,,0.00,Wunderground v.1.15,2013-01-21 11:35:00,
2013-01-21 06:40:00,24.6,16.2,30.08,NNW,333,0.0,13.0,70,0.00,,,0.00,Wunderground v.1.15,2013-01-21 11:40:00,
2013-01-21 06:45:00,24.3,16.2,30.07,NNW,333,0.0,13.0,71,0.00,,,0.00,Wunderground v.1.15,2013-01-21 11:45:00,
2013-01-21 06:55:00,24.0,16.3,30.08,NNW,333,0.0,13.0,72,0.00,,,0.00,Wunderground v.1.15,2013-01-21 11:55:00,
2013-01-21 07:00:00,23.9,16.2,30.08,NNW,333,0.0,13.0,72,0.00,,,0.00,Wunderground v.1.15,2013-01-21 12:00:00,
2013-01-21 07:05:00,23.7,16.0,30.08,NNW,333,0.0,13.0,72,0.00,,,0.00,Wunderground v.1.15,2013-01-21 12:05:00,
2013-01-21 07:15:00,23.4,16.0,30.08,NNW,333,0.0,13.0,73,0.00,,,0.00,Wunderground v.1.15,2013-01-21 12:15:00,
2013-01-21 07:20:00,23.4,16.3,30.08,NNW,333,0.0,13.0,74,0.00,,,0.00,Wunderground v.1.15,2013-01-21 12:20:00,
2013-01-21 07:25:00,23.5,16.4,30.09,NNW,333,0.0,13.0,74,0.00,,,0.00,Wunderground v.1.15,2013-01-21 12:25:00,
2013-01-21 07:30:00,23.7,16.6,30.09,NNW,333,0.0,13.0,74,0.00,,,0.00,Wunderground v.1.15,2013-01-21 12:30:00,
2013-01-21 07:35:00,23.9,17.1,30.10,NNE,17,0.0,13.0,75,0.00,,,0.00,Wunderground v.1.15,2013-01-21 12:35:00,
2013-01-21 07:45:00,24.2,17.4,30.10,NNE,17,0.0,13.0,75,0.00,,,0.00,Wunderground v.1.15,2013-01-21 12:45:00,
2013-01-21 07:50:00,24.2,17.4,30.09,NNE,17,0.0,13.0,75,0.00,,,0.00,Wunderground v.1.15,2013-01-21 12:50:00,
2013-01-21 07:55:00,24.3,17.8,30.10,NNE,17,0.0,13.0,76,0.00,,,0.00,Wunderground v.1.15,2013-01-21 12:55:00,
2013-01-21 08:00:00,24.5,18.0,30.10,NNE,17,0.0,13.0,76,0.00,,,0.00,Wunderground v.1.15,2013-01-21 13:00:00,
2013-01-21 08:05:00,24.8,18.6,30.10,NNE,17,0.0,13.0,77,0.00,,,0.00,Wunderground v.1.15,2013-01-21 13:05:00,
2013-01-21 08:15:00,26.1,19.9,30.09,NNE,17,0.0,13.0,77,0.00,,,0.00,Wunderground v.1.15,2013-01-21 13:15:00,
2013-01-21 08:20:00,27.7,20.8,30.09,NNE,17,0.0,13.0,75,0.00,,,0.00,Wunderground v.1.15,2013-01-21 13:20:00,
2013-01-21 08:25:00,29.4,20.1,30.09,NNE,17,0.0,13.0,68,0.00,,,0.00,Wunderground v.1.15,2013-01-21 13:25:00,
2013-01-21 08:30:00,30.9,19.4,30.08,NNE,17,0.0,13.0,62,0.00,,,0.00,Wunderground v.1.15,2013-01-21 13:30:00,
2013-01-21 08:35:00,32.0,18.9,30.08,NNE,17,0.0,13.0,58,0.00,,,0.00,Wunderground v.1.15,2013-01-21 13:35:00,
2013-01-21 08:45:00,33.8,18.0,30.08,NNE,17,0.0,13.0,52,0.00,,,0.00,Wunderground v.1.15,2013-01-21 13:45:00,
2013-01-21 08:50:00,34.4,17.7,30.08,NNE,17,0.0,13.0,50,0.00,,,0.00,Wunderground v.1.15,2013-01-21 13:50:00,
2013-01-21 08:55:00,35.1,17.8,30.08,NE,38,0.0,13.0,49,0.00,,,0.00,Wunderground v.1.15,2013-01-21 13:55:00,
2013-01-21 09:00:00,35.7,17.4,30.08,NE,46,0.0,13.0,47,0.00,,,0.00,Wunderground v.1.15,2013-01-21 14:00:00,
2013-01-21 09:05:00,35.4,16.6,30.08,NE,46,0.0,13.0,46,0.00,,,0.00,Wunderground v.1.15,2013-01-21 14:05:00,
2013-01-21 09:15:00,35.3,16.0,30.08,NE,47,0.0,13.0,45,0.00,,,0.00,Wunderground v.1.15,2013-01-21 14:15:00,
2013-01-21 09:20:00,35.6,17.3,30.08,NE,47,0.0,13.0,47,0.00,,,0.00,Wunderground v.1.15,2013-01-21 14:20:00,
2013-01-21 09:25:00,35.9,16.6,30.08,ESE,111,0.0,13.0,45,0.00,,,0.00,Wunderground v.1.15,2013-01-21 14:25:00,
2013-01-21 09:35:00,36.2,16.4,30.08,East,80,0.0,13.0,44,0.00,,,0.00,Wunderground v.1.15,2013-01-21 14:35:00,
2013-01-21 09:40:00,35.7,16.4,30.08,South,188,1.0,1.0,45,0.00,,,0.00,Wunderground v.1.15,2013-01-21 14:40:00,
2013-01-21 09:45:00,35.8,17.0,30.08,South,178,1.0,13.0,46,0.00,,,0.00,Wunderground v.1.15,2013-01-21 14:45:00,
2013-01-21 09:50:00,36.0,17.2,30.08,SSW,192,0.0,13.0,46,0.00,,,0.00,Wunderground v.1.15,2013-01-21 14:50:00,
2013-01-21 10:00:00,36.8,17.4,30.08,East,96,0.0,13.0,45,0.00,,,0.00,Wunderground v.1.15,2013-01-21 15:00:00,
2013-01-21 10:05:00,36.9,18.0,30.08,South,186,0.0,13.0,46,0.00,,,0.00,Wunderground v.1.15,2013-01-21 15:05:00,
2013-01-21 10:10:00,36.0,16.7,30.08,South,187,1.0,1.0,45,0.00,,,0.00,Wunderground v.1.15,2013-01-21 15:10:00,
2013-01-21 10:15:00,35.9,17.1,30.08,SE,126,1.0,13.0,46,0.00,,,0.00,Wunderground v.1.15,2013-01-21 15:15:00,
2013-01-21 10:20:00,36.3,17.5,30.07,SE,138,1.0,1.0,46,0.00,,,0.00,Wunderground v.1.15,2013-01-21 15:20:00,
2013-01-21 10:30:00,36.3,18.0,30.07,SSE,148,1.0,1.0,47,0.00,,,0.00,Wunderground v.1.15,2013-01-21 15:30:00,
2013-01-21 10:35:00,36.6,17.2,30.07,ESE,107,1.0,13.0,45,0.00,,,0.00,Wunderground v.1.15,2013-01-21 15:35:00,
2013-01-21 10:40:00,36.8,17.9,30.07,ESE,111,0.0,13.0,46,0.00,,,0.00,Wunderground v.1.15,2013-01-21 15:40:00,
2013-01-21 10:45:00,37.5,18.6,30.07,ESE,111,0.0,13.0,46,0.00,,,0.00,Wunderground v.1.15,2013-01-21 15:45:00,
2013-01-21 10:50:00,38.1,19.1,30.07,ESE,118,0.0,13.0,46,0.00,,,0.00,Wunderground v.1.15,2013-01-21 15:50:00,
2013-01-21 11:00:00,37.7,18.8,30.06,ESE,115,1.0,13.0,46,0.00,,,0.00,Wunderground v.1.15,2013-01-21 16:00:00,
2013-01-21 11:05:00,37.3,18.4,30.05,ESE,107,1.0,13.0,46,0.00,,,0.00,Wunderground v.1.15,2013-01-21 16:05:00,
2013-01-21 11:10:00,37.2,18.3,30.05,South,191,1.0,13.0,46,0.00,,,0.00,Wunderground v.1.15,2013-01-21 16:10:00,
2013-01-21 11:15:00,37.5,19.1,30.05,ESE,103,1.0,13.0,47,0.00,,,0.00,Wunderground v.1.15,2013-01-21 16:15:00,
2013-01-21 11:25:00,37.2,19.3,30.03,SSE,153,1.0,2.0,48,0.00,,,0.00,Wunderground v.1.15,2013-01-21 16:25:00,
2013-01-21 11:30:00,37.3,19.4,30.03,ESE,117,1.0,1.0,48,0.00,,,0.00,Wunderground v.1.15,2013-01-21 16:30:00,
2013-01-21 11:35:00,37.6,19.7,30.03,ENE,65,1.0,13.0,48,0.00,,,0.00,Wunderground v.1.15,2013-01-21 16:35:00,
2013-01-21 11:40:00,37.9,20.4,30.02,ESE,115,1.0,1.0,49,0.00,,,0.00,Wunderground v.1.15,2013-01-21 16:40:00,
2013-01-21 11:45:00,38.4,20.9,30.02,ENE,68,1.0,13.0,49,0.00,,,0.00,Wunderground v.1.15,2013-01-21 16:45:00,
2013-01-21 11:55:00,38.3,19.8,30.01,SSW,195,1.0,13.0,47,0.00,,,0.00,Wunderground v.1.15,2013-01-21 16:55:00,
2013-01-21 12:00:00,37.7,20.2,30.01,ESE,117,1.0,13.0,49,0.00,,,0.00,Wunderground v.1.15,2013-01-21 17:00:00,
2013-01-21 12:05:00,37.7,19.8,30.00,SSW,195,1.0,13.0,48,0.00,,,0.00,Wunderground v.1.15,2013-01-21 17:05:00,
2013-01-21 12:10:00,37.7,19.8,30.00,SSE,149,1.0,13.0,48,0.00,,,0.00,Wunderground v.1.15,2013-01-21 17:10:00,
2013-01-21 12:20:00,37.6,20.1,29.99,SSE,159,1.0,13.0,49,0.00,,,0.00,Wunderground v.1.15,2013-01-21 17:20:00,
2013-01-21 12:25:00,37.6,20.6,29.99,ESE,118,2.0,13.0,50,0.00,,,0.00,Wunderground v.1.15,2013-01-21 17:25:00,
2013-01-21 12:30:00,37.9,20.9,29.99,ENE,74,2.0,2.0,50,0.00,,,0.00,Wunderground v.1.15,2013-01-21 17:30:00,
2013-01-21 12:35:00,38.5,21.5,29.98,SSE,157,1.0,3.0,50,0.00,,,0.00,Wunderground v.1.15,2013-01-21 17:35:00,
2013-01-21 12:40:00,38.6,20.6,29.98,SSW,201,1.0,1.0,48,0.00,,,0.00,Wunderground v.1.15,2013-01-21 17:40:00,
2013-01-21 12:50:00,38.6,21.5,29.97,ESE,113,1.0,13.0,50,0.00,,,0.00,Wunderground v.1.15,2013-01-21 17:50:00,
2013-01-21 12:55:00,38.5,21.5,29.97,East,80,2.0,13.0,50,0.00,,,0.00,Wunderground v.1.15,2013-01-21 17:55:00,
2013-01-21 13:00:00,38.6,21.5,29.97,SSE,154,2.0,13.0,50,0.00,,,0.00,Wunderground v.1.15,2013-01-21 18:00:00,
2013-01-21 13:05:00,38.4,21.4,29.97,South,175,2.0,13.0,50,0.00,,,0.00,Wunderground v.1.15,2013-01-21 18:05:00,
2013-01-21 13:15:00,38.8,22.2,29.96,ENE,71,1.0,13.0,51,0.00,,,0.00,Wunderground v.1.15,2013-01-21 18:15:00,
2013-01-21 13:20:00,39.1,22.5,29.95,SE,145,2.0,2.0,51,0.00,,,0.00,Wunderground v.1.15,2013-01-21 18:20:00,
2013-01-21 13:25:00,38.8,21.7,29.95,SE,134,2.0,13.0,50,0.00,,,0.00,Wunderground v.1.15,2013-01-21 18:25:00,
2013-01-21 13:30:00,38.7,21.6,29.95,South,174,1.0,13.0,50,0.00,,,0.00,Wunderground v.1.15,2013-01-21 18:30:00,
2013-01-21 13:40:00,37.9,21.4,29.94,SSW,200,1.0,13.0,51,0.00,,,0.00,Wunderground v.1.15,2013-01-21 18:40:00,
2013-01-21 13:45:00,37.7,20.7,29.94,East,100,2.0,13.0,50,0.00,,,0.00,Wunderground v.1.15,2013-01-21 18:45:00,
2013-01-21 13:50:00,37.7,21.2,29.94,SSE,160,1.0,1.0,51,0.00,,,0.00,Wunderground v.1.15,2013-01-21 18:50:00,
2013-01-21 13:55:00,37.6,21.5,29.94,ESE,105,1.0,13.0,52,0.00,,,0.00,Wunderground v.1.15,2013-01-21 18:55:00,
2013-01-21 14:00:00,37.3,21.7,29.93,SE,130,1.0,1.0,53,0.00,,,0.00,Wunderground v.1.15,2013-01-21 19:00:00,
2013-01-21 14:10:00,37.1,22.4,29.93,ESE,103,1.0,1.0,55,0.00,,,0.00,Wunderground v.1.15,2013-01-21 19:10:00,
2013-01-21 14:15:00,36.9,21.8,29.92,SE,134,1.0,13.0,54,0.00,,,0.00,Wunderground v.1.15,2013-01-21 19:15:00,
2013-01-21 14:20:00,36.8,22.1,29.92,SE,132,1.0,1.0,55,0.00,,,0.00,Wunderground v.1.15,2013-01-21 19:20:00,
2013-01-21 14:25:00,36.7,22.0,29.92,ENE,61,1.0,5.0,55,0.00,,,0.00,Wunderground v.1.15,2013-01-21 19:25:00,
2013-01-21 14:35:00,36.7,22.5,29.91,SE,132,1.0,13.0,56,0.00,,,0.00,Wunderground v.1.15,2013-01-21 19:35:00,
2013-01-21 14:40:00,36.7,22.5,29.91,ESE,102,1.0,1.0,56,0.00,,,0.00,Wunderground v.1.15,2013-01-21 19:40:00,
2013-01-21 14:45:00,36.6,22.4,29.90,South,191,1.0,13.0,56,0.00,,,0.00,Wunderground v.1.15,2013-01-21 19:45:00,
2013-01-21 14:50:00,36.6,22.8,29.90,SE,133,1.0,1.0,57,0.00,,,0.00,Wunderground v.1.15,2013-01-21 19:50:00,
2013-01-21 15:00:00,37.5,23.2,29.89,SSE,163,1.0,1.0,56,0.00,,,0.00,Wunderground v.1.15,2013-01-21 20:00:00,
2013-01-21 15:05:00,37.8,23.9,29.89,ESE,114,1.0,2.0,57,0.00,,,0.00,Wunderground v.1.15,2013-01-21 20:05:00,
2013-01-21 15:10:00,37.9,24.0,29.88,ESE,106,2.0,2.0,57,0.00,,,0.00,Wunderground v.1.15,2013-01-21 20:10:00,
2013-01-21 15:15:00,37.8,23.9,29.88,East,86,2.0,13.0,57,0.00,,,0.00,Wunderground v.1.15,2013-01-21 20:15:00,
2013-01-21 15:25:00,38.1,24.6,29.87,South,181,2.0,13.0,58,0.00,,,0.00,Wunderground v.1.15,2013-01-21 20:25:00,
2013-01-21 15:30:00,38.2,24.7,29.86,ESE,123,2.0,2.0,58,0.00,,,0.00,Wunderground v.1.15,2013-01-21 20:30:00,
2013-01-21 15:35:00,38.6,25.5,29.85,SSE,150,1.0,13.0,59,0.00,,,0.00,Wunderground v.1.15,2013-01-21 20:35:00,
2013-01-21 15:40:00,38.6,25.5,29.85,SSE,150,1.0,1.0,59,0.00,,,0.00,Wunderground v.1.15,2013-01-21 20:40:00,
2013-01-21 15:45:00,38.3,25.2,29.85,East,90,2.0,2.0,59,0.00,,,0.00,Wunderground v.1.15,2013-01-21 20:45:00,
2013-01-21 15:55:00,38.3,25.6,29.85,ENE,74,1.0,13.0,60,0.00,,,0.00,Wunderground v.1.15,2013-01-21 20:55:00,
2013-01-21 16:00:00,38.4,26.1,29.84,SE,140,1.0,1.0,61,0.00,,,0.00,Wunderground v.1.15,2013-01-21 21:00:00,
2013-01-21 16:05:00,38.3,26.0,29.84,SSE,159,1.0,13.0,61,0.00,,,0.00,Wunderground v.1.15,2013-01-21 21:05:00,
2013-01-21 16:10:00,38.1,26.2,29.83,SE,133,2.0,2.0,62,0.00,,,0.00,Wunderground v.1.15,2013-01-21 21:10:00,
2013-01-21 16:15:00,37.9,26.4,29.83,SE,135,2.0,13.0,63,0.00,,,0.00,Wunderground v.1.15,2013-01-21 21:15:00,
2013-01-21 16:25:00,37.5,26.4,29.83,SSE,159,1.0,2.0,64,0.00,,,0.00,Wunderground v.1.15,2013-01-21 21:25:00,
2013-01-21 16:30:00,37.3,26.6,29.82,SE,142,1.0,1.0,65,0.00,,,0.00,Wunderground v.1.15,2013-01-21 21:30:00,
2013-01-21 16:35:00,37.1,26.8,29.81,East,90,1.0,13.0,66,0.00,,,0.00,Wunderground v.1.15,2013-01-21 21:35:00,
2013-01-21 16:45:00,37.0,27.1,29.81,ESE,104,1.0,13.0,67,0.00,,,0.00,Wunderground v.1.15,2013-01-21 21:45:00,
2013-01-21 16:50:00,37.0,27.1,29.81,East,101,1.0,1.0,67,0.00,,,0.00,Wunderground v.1.15,2013-01-21 21:50:00,
2013-01-21 16:55:00,37.0,27.4,29.81,East,101,0.0,13.0,68,0.00,,,0.00,Wunderground v.1.15,2013-01-21 21:55:00,
2013-01-21 17:00:00,37.0,27.8,29.81,East,101,0.0,13.0,69,0.00,,,0.00,Wunderground v.1.15,2013-01-21 22:00:00,
2013-01-21 17:05:00,37.0,28.1,29.81,East,101,0.0,13.0,70,0.00,,,0.00,Wunderground v.1.15,2013-01-21 22:05:00,
2013-01-21 17:15:00,37.0,28.1,29.81,East,101,0.0,13.0,70,0.00,,,0.00,Wunderground v.1.15,2013-01-21 22:15:00,
2013-01-21 17:20:00,36.8,27.9,29.81,East,101,0.0,13.0,70,0.00,,,0.00,Wunderground v.1.15,2013-01-21 22:20:00,
2013-01-21 17:25:00,36.6,28.1,29.81,East,101,0.0,13.0,71,0.00,,,0.00,Wunderground v.1.15,2013-01-21 22:25:00,
2013-01-21 17:30:00,36.4,27.9,29.81,East,101,0.0,13.0,71,0.00,,,0.00,Wunderground v.1.15,2013-01-21 22:30:00,
2013-01-21 17:35:00,36.2,27.7,29.80,East,101,0.0,13.0,71,0.00,,,0.00,Wunderground v.1.15,2013-01-21 22:35:00,
2013-01-21 17:45:00,36.0,27.8,29.80,East,101,0.0,13.0,72,0.00,,,0.00,Wunderground v.1.15,2013-01-21 22:45:00,
2013-01-21 17:50:00,35.9,27.7,29.80,East,101,0.0,13.0,72,0.00,,,0.00,Wunderground v.1.15,2013-01-21 22:50:00,
2013-01-21 17:55:00,35.7,27.6,29.79,East,101,0.0,13.0,72,0.00,,,0.00,Wunderground v.1.15,2013-01-21 22:55:00,
2013-01-21 18:00:00,35.5,27.7,29.79,East,101,0.0,13.0,73,0.00,,,0.00,Wunderground v.1.15,2013-01-21 23:00:00,
2013-01-21 18:10:00,34.8,27.0,29.79,East,101,0.0,13.0,73,0.00,,,0.00,Wunderground v.1.15,2013-01-21 23:10:00,
2013-01-21 18:15:00,34.4,27.0,29.79,East,101,0.0,13.0,74,0.00,,,0.00,Wunderground v.1.15,2013-01-21 23:15:00,
2013-01-21 18:20:00,34.2,27.1,29.79,East,101,0.0,13.0,75,0.00,,,0.00,Wunderground v.1.15,2013-01-21 23:20:00,
2013-01-21 18:30:00,33.8,27.0,29.78,East,101,0.0,13.0,76,0.00,,,0.00,Wunderground v.1.15,2013-01-21 23:30:00,
2013-01-21 18:35:00,33.7,27.3,29.78,East,101,0.0,13.0,77,0.00,,,0.00,Wunderground v.1.15,2013-01-21 23:35:00,
2013-01-21 18:40:00,33.7,27.3,29.77,East,101,0.0,13.0,77,0.00,,,0.00,Wunderground v.1.15,2013-01-21 23:40:00,
2013-01-21 18:45:00,33.9,27.4,29.76,East,101,0.0,13.0,77,0.00,,,0.00,Wunderground v.1.15,2013-01-21 23:45:00,
2013-01-21 18:50:00,34.0,27.5,29.76,East,101,0.0,13.0,77,0.00,,,0.00,Wunderground v.1.15,2013-01-21 23:50:00,
2013-01-21 19:00:00,34.2,27.7,29.75,East,101,0.0,13.0,77,0.00,,,0.00,Wunderground v.1.15,2013-01-22 00:00:00,
2013-01-21 19:05:00,34.4,28.2,29.75,East,101,0.0,13.0,78,0.00,,,0.00,Wunderground v.1.15,2013-01-22 00:05:00,
2013-01-21 19:10:00,34.4,28.2,29.75,East,101,0.0,13.0,78,0.00,,,0.00,Wunderground v.1.15,2013-01-22 00:10:00,
2013-01-21 19:15:00,34.4,28.2,29.75,East,101,0.0,13.0,78,0.00,,,0.00,Wunderground v.1.15,2013-01-22 00:15:00,
2013-01-21 19:25:00,34.7,28.5,29.74,East,101,0.0,13.0,78,0.00,,,0.00,Wunderground v.1.15,2013-01-22 00:25:00,
2013-01-21 19:30:00,34.8,29.0,29.74,East,101,0.0,13.0,79,0.00,,,0.00,Wunderground v.1.15,2013-01-22 00:30:00,
2013-01-21 19:35:00,35.0,29.1,29.74,East,101,0.0,13.0,79,0.00,,,0.00,Wunderground v.1.15,2013-01-22 00:35:00,
2013-01-21 19:40:00,35.1,29.2,29.74,East,101,0.0,13.0,79,0.00,,,0.00,Wunderground v.1.15,2013-01-22 00:40:00,
2013-01-21 19:50:00,35.3,28.8,29.75,NNW,342,0.0,13.0,77,0.00,,,0.00,Wunderground v.1.15,2013-01-22 00:50:00,
2013-01-21 19:55:00,35.4,28.6,29.75,NNW,336,1.0,13.0,76,0.00,,,0.00,Wunderground v.1.15,2013-01-22 00:55:00,
2013-01-21 20:00:00,35.4,28.6,29.76,NNW,332,1.0,13.0,76,0.00,,,0.00,Wunderground v.1.15,2013-01-22 01:00:00,
2013-01-21 20:05:00,35.3,28.2,29.76,North,355,2.0,13.0,75,0.00,,,0.00,Wunderground v.1.15,2013-01-22 01:05:00,
2013-01-21 20:10:00,34.8,27.7,29.76,NW,325,3.0,3.0,75,0.00,,,0.00,Wunderground v.1.15,2013-01-22 01:10:00,
2013-01-21 20:20:00,33.8,28.0,29.79,North,355,2.0,2.0,79,0.00,,,0.00,Wunderground v.1.15,2013-01-22 01:20:00,
2013-01-21 20:25:00,33.0,27.8,29.79,WNW,295,2.0,13.0,81,0.00,,,0.00,Wunderground v.1.15,2013-01-22 01:25:00,
2013-01-21 20:30:00,32.4,27.8,29.80,WNW,299,2.0,13.0,83,0.00,,,0.00,Wunderground v.1.15,2013-01-22 01:30:00,
2013-01-21 20:35:00,32.1,27.8,29.80,North,355,2.0,13.0,84,0.00,,,0.00,Wunderground v.1.15,2013-01-22 01:35:00,
2013-01-21 20:40:00,31.8,27.8,29.80,North,5,3.0,13.0,85,0.00,,,0.00,Wunderground v.1.15,2013-01-22 01:40:00,
2013-01-21 20:50:00,31.2,27.5,29.81,West,268,4.0,13.0,86,0.00,,,0.00,Wunderground v.1.15,2013-01-22 01:50:00,
2013-01-21 20:55:00,30.7,27.3,29.81,WNW,303,5.0,13.0,87,0.00,,,0.00,Wunderground v.1.15,2013-01-22 01:55:00,
2013-01-21 21:00:00,30.5,27.4,29.82,WNW,297,4.0,4.0,88,0.00,,,0.00,Wunderground v.1.15,2013-01-22 02:00:00,
2013-01-21 21:05:00,30.4,27.3,29.82,WSW,256,2.0,13.0,88,0.00,,,0.00,Wunderground v.1.15,2013-01-22 02:05:00,
2013-01-21 21:10:00,30.3,27.4,29.81,West,269,1.0,13.0,89,0.00,,,0.00,Wunderground v.1.15,2013-01-22 02:10:00,
2013-01-21 21:20:00,30.0,27.4,29.81,North,355,2.0,2.0,90,0.00,,,0.00,Wunderground v.1.15,2013-01-22 02:20:00,
2013-01-21 21:25:00,29.9,27.6,29.82,WNW,288,2.0,13.0,91,0.00,,,0.00,Wunderground v.1.15,2013-01-22 02:25:00,
2013-01-21 21:30:00,29.9,27.6,29.82,NNW,331,1.0,13.0,91,0.00,,,0.00,Wunderground v.1.15,2013-01-22 02:30:00,
2013-01-21 21:35:00,29.9,27.6,29.82,West,280,1.0,13.0,91,0.00,,,0.00,Wunderground v.1.15,2013-01-22 02:35:00,
2013-01-21 21:45:00,29.9,27.6,29.82,NE,41,2.0,3.0,91,0.00,,,0.00,Wunderground v.1.15,2013-01-22 02:45:00,
2013-01-21 21:50:00,29.9,27.6,29.82,NNW,347,3.0,3.0,91,0.00,,,0.00,Wunderground v.1.15,2013-01-22 02:50:00,
2013-01-21 21:55:00,29.8,27.5,29.82,NW,313,3.0,13.0,91,0.00,,,0.00,Wunderground v.1.15,2013-01-22 02:55:00,
2013-01-21 22:00:00,29.8,27.5,29.83,NNW,346,2.0,13.0,91,0.00,,,0.00,Wunderground v.1.15,2013-01-22 03:00:00,
2013-01-21 22:10:00,29.8,27.5,29.83,North,360,2.0,2.0,91,0.00,,,0.00,Wunderground v.1.15,2013-01-22 03:10:00,
2013-01-21 22:15:00,29.8,27.5,29.83,NNW,340,1.0,13.0,91,0.00,,,0.00,Wunderground v.1.15,2013-01-22 03:15:00,
2013-01-21 22:20:00,29.8,27.5,29.83,North,360,1.0,13.0,91,0.00,,,0.00,Wunderground v.1.15,2013-01-22 03:20:00,
2013-01-21 22:25:00,29.8,27.5,29.83,NNW,337,2.0,13.0,91,0.00,,,0.00,Wunderground v.1.15,2013-01-22 03:25:00,
2013-01-21 22:30:00,29.8,27.5,29.83,NW,325,2.0,13.0,91,0.00,,,0.00,Wunderground v.1.15,2013-01-22 03:30:00,
2013-01-21 22:40:00,29.8,27.2,29.84,NW,321,1.0,13.0,90,0.00,,,0.00,Wunderground v.1.15,2013-01-22 03:40:00,
2013-01-21 22:45:00,29.7,27.1,29.83,NW,322,1.0,13.0,90,0.00,,,0.00,Wunderground v.1.15,2013-01-22 03:45:00,
2013-01-21 22:50:00,29.6,26.8,29.84,NNE,22,1.0,1.0,89,0.00,,,0.00,Wunderground v.1.15,2013-01-22 03:50:00,
2013-01-21 22:55:00,29.5,26.7,29.84,NW,325,1.0,4.0,89,0.00,,,0.00,Wunderground v.1.15,2013-01-22 03:55:00,
2013-01-21 23:00:00,29.4,26.3,29.84,NW,314,1.0,13.0,88,0.00,,,0.00,Wunderground v.1.15,2013-01-22 04:00:00,
2013-01-21 23:10:00,29.2,25.5,29.84,NNW,340,2.0,13.0,86,0.00,,,0.00,Wunderground v.1.15,2013-01-22 04:10:00,
2013-01-21 23:15:00,29.2,25.3,29.84,NNW,340,2.0,13.0,85,0.00,,,0.00,Wunderground v.1.15,2013-01-22 04:15:00,
2013-01-21 23:20:00,29.1,24.9,29.84,NNW,331,2.0,2.0,84,0.00,,,0.00,Wunderground v.1.15,2013-01-22 04:20:00,
2013-01-21 23:25:00,29.0,24.5,29.84,WNW,284,1.0,3.0,83,0.00,,,0.00,Wunderground v.1.15,2013-01-22 04:25:00,
2013-01-21 23:30:00,29.0,24.5,29.84,WSW,253,1.0,1.0,83,0.00,,,0.00,Wunderground v.1.15,2013-01-22 04:30:00,
2013-01-21 23:40:00,28.8,24.0,29.84,North,360,1.0,1.0,82,0.00,,,0.00,Wunderground v.1.15,2013-01-22 04:40:00,
2013-01-21 23:45:00,28.7,23.9,29.84,West,268,1.0,13.0,82,0.00,,,0.00,Wunderground v.1.15,2013-01-22 04:45:00,
2013-01-21 23:50:00,28.5,23.7,29.85,NNW,343,1.0,13.0,82,0.00,,,0.00,Wunderground v.1.15,2013-01-22 04:50:00,